Powrót do katalogu

CZ-6A DEB

AktywnyPO
NORAD 54425·DEBRIS·🇨🇳 China

Wystrzelony Nov 11, 2022 z Taiyuan Satellite Launch Center

Loading…

Następne Przeloty (najbliższe 24 godziny)

TLE

ŚwieżeSource: Space-Track

Epoka: Sep 14, 2026, 06:27 UTC

1 54425U 22151EZ  26257.26875918  .00001297  00000-0  24775-3 0  9996
2 54425  98.8620  14.1544 0121114 306.5900  52.4204 14.61400907203719

Śledź CZ-6A DEB w czasie rzeczywistym z AllMySat

Download on the App Store